Location: Unspecified
(0.0000°N, 0.0000°E)
Time: 13:38:15
(UTC+00:00)

Vanguard 1 - Pass Details

Date: 15 December 2017
Orbit: 650 x 3833 km, 34.2° (Epoch: 22 April)

Event Time Altitude Azimuth Distance (km) Brightness Sun altitude
Rises 01:55:07 0° 210° (SSW) 5,246 13.9 -52.7°
Reaches altitude 10° 01:59:09 10° 196° (SSW) 4,714 13.6 -51.9°
Maximum altitude 02:10:24 25° 144° (SE) 4,631 13.7 -49.7°
Drops below altitude 10° 02:26:10 10° 96° (E) 6,750 14.7 -46.6°
Sets 02:33:36 0° 85° (E) 7,954 15.2 -45.0°
